Cairns, Australia

10:44 PM AEST on January 24, 2017 (GMT +1000)
Cairns International

Weather History for YBCS - May, 2013

Change the Weather History Date:

Sunday, May 5, 2013

  Actual Average Record
Temperature  
Mean Temperature 76 °F -  
Max Temperature 82 °F 81 °F 86 °F (2007)
Min Temperature 69 °F 67 °F 58 °F (2014)
Cooling Degree Days 10    
Growing Degree Days 26 (Base 50)    
Moisture  
Dew Point 66 °F    
Average Humidity 73    
Maximum Humidity 94    
Minimum Humidity 49    
Precipitation  
Precipitation 0.00 in 0.13 in - ()
Sea Level Pressure  
Sea Level Pressure 29.98 in    
Wind  
Wind Speed 10 mph ()    
Max Wind Speed 18 mph    
Max Gust Speed -    
Visibility 7.1 miles    
Events Rain    
Averages and records for this station are not official NWS values.
T = Trace of Precipitation, MM = Missing Value Source: Averaged Metar Reports

Daily Weather History Graph

Daily Weather History Graph

Search for Another Location

Airport or City:

Trip Planner

Search our weather history database for the weather conditions in past years. The results will help you decide how hot, cold, wet, or windy it might be!

Date:

Astronomy

May. 05, 2013 Rise Set
Actual Time 6:30 AM AEST 5:56 PM AEST
Civil Twilight 6:07 AM AEST 6:19 PM AEST
Nautical Twilight 5:41 AM AEST 6:45 PM AEST
Astronomical Twilight 5:16 AM AEST 7:11 PM AEST
Moon 2:10 AM AEST (5/5) 2:36 PM AEST (5/5)
Length of Visible Light 12h 11m
Length of Day
11h 26m
Waning Crescent, 23% of the Moon is Illuminated
May 5
Waning Crescent
May 10
New
May 18
First Quarter
May 25
Full
Jun 1
Last Quarter

Hourly Weather History & Observations

Time (AEST) Temp. Heat Index Dew Point Humidity Pressure Visibility Wind Dir Wind Speed Gust Speed Precip Events Conditions
12:00 AM 72 °F - 68 °F 85% 30.04 in 5 mi SSW 10.4 mph - -   Overcast
12:00 AM 71.6 °F - 68.0 °F 88% 30.04 in 5.0 mi SSW 10.4 mph - N/A Rain Light Rain Showers
12:30 AM 73.4 °F - 68.0 °F 83% 30.01 in 5.6 mi South 10.4 mph - N/A Rain Light Rain Showers
12:37 AM 71.6 °F - 69.8 °F 94% 30.01 in 3.1 mi South 10.4 mph - N/A Rain Light Rain Showers
1:00 AM 73 °F - 69 °F 82% 30.02 in - South 11.5 mph - -  
1:00 AM 73.4 °F - 68.0 °F 83% 30.01 in 6.2 mi South 11.5 mph - N/A   Mostly Cloudy
1:30 AM 73.4 °F - 68.0 °F 83% 30.01 in 6.2 mi South 12.7 mph - N/A   Mostly Cloudy
2:00 AM 73.4 °F - 68.0 °F 83% 29.98 in 6.2 mi South 12.7 mph - N/A   Mostly Cloudy
2:30 AM 73.4 °F - 68.0 °F 83% 29.98 in 6.2 mi South 12.7 mph - N/A   Mostly Cloudy
3:00 AM 72 °F - 68 °F 85% 29.99 in - South 10.4 mph - -  
3:00 AM 73.4 °F - 68.0 °F 83% 29.98 in 6.2 mi South 10.4 mph - N/A   Scattered Clouds
4:00 AM 73 °F - 67 °F 78% 30.00 in - South 10.4 mph - -  
4:00 AM 73.4 °F - 68.0 °F 83% 29.98 in 6.2 mi South 10.4 mph - N/A   Scattered Clouds
4:30 AM 71.6 °F - 68.0 °F 88% 29.98 in 6.2 mi South 9.2 mph - N/A   Scattered Clouds
5:00 AM 71.6 °F - 66.2 °F 83% 29.98 in 6.2 mi South 10.4 mph - N/A   Partly Cloudy
5:30 AM 71.6 °F - 66.2 °F 83% 29.98 in 6.2 mi South 11.5 mph - N/A   Partly Cloudy
6:00 AM 71 °F - 66 °F 81% 29.99 in 19 mi SSE 8.1 mph - -   Partly Cloudy
6:00 AM 71.6 °F - 66.2 °F 83% 29.98 in 6.2 mi SSE 8.1 mph - N/A   Partly Cloudy
6:30 AM 73.4 °F - 66.2 °F 78% 29.98 in 6.2 mi South 12.7 mph - N/A   Partly Cloudy
7:00 AM 70 °F - 68 °F 90% 30.01 in - SE 10.4 mph - -  
7:00 AM 69.8 °F - 68.0 °F 94% 30.01 in 6.2 mi SE 10.4 mph - N/A   Scattered Clouds
7:30 AM 71.6 °F - 68.0 °F 88% 30.01 in 6.2 mi SSE 9.2 mph - N/A   Mostly Cloudy
8:00 AM 75.2 °F - 66.2 °F 73% 30.01 in 6.2 mi SSE 9.2 mph - N/A   Mostly Cloudy
8:30 AM 75.2 °F - 66.2 °F 73% 30.01 in 6.2 mi South 10.4 mph - N/A   Mostly Cloudy
9:00 AM 76 °F - 67 °F 66% 30.04 in 19 mi South 9.2 mph - -   Partly Cloudy
9:00 AM 75.2 °F - 66.2 °F 73% 30.04 in 6.2 mi South 9.2 mph - N/A   Mostly Cloudy
9:30 AM 77.0 °F - 66.2 °F 69% 30.04 in 6.2 mi South 9.2 mph - N/A   Mostly Cloudy
10:00 AM 79 °F - 68 °F 60% 30.04 in - South 9.2 mph - -  
10:00 AM 78.8 °F - 68.0 °F 69% 30.04 in 6.2 mi South 9.2 mph - N/A   Mostly Cloudy
10:30 AM 78.8 °F - 68.0 °F 69% 30.01 in 6.2 mi SSE 10.4 mph - N/A   Mostly Cloudy
11:00 AM 78.8 °F - 68.0 °F 69% 30.01 in 6.2 mi SSE 10.4 mph - N/A   Mostly Cloudy
11:30 AM 82.4 °F 85.4 °F 68.0 °F 62% 29.98 in 6.2 mi SE 11.5 mph - N/A   Mostly Cloudy
12:00 PM 79 °F - 66 °F 55% 29.99 in 19 mi ESE 9.2 mph - -   Partly Cloudy
12:00 PM 78.8 °F - 66.2 °F 65% 29.98 in 6.2 mi ESE 9.2 mph - N/A   Mostly Cloudy
12:30 PM 80.6 °F 82.7 °F 66.2 °F 61% 29.95 in 6.2 mi ESE 10.4 mph - N/A   Mostly Cloudy
1:00 PM 80 °F - 64 °F 49% 29.96 in - SE 17.3 mph - -  
1:00 PM 80.6 °F 82.3 °F 64.4 °F 58% 29.95 in 6.2 mi SE 17.3 mph - N/A   Mostly Cloudy
1:30 PM 80.6 °F 82.3 °F 64.4 °F 58% 29.95 in 6.2 mi SE 16.1 mph - N/A   Mostly Cloudy
2:00 PM 77.0 °F - 66.2 °F 69% 29.95 in 6.2 mi South 12.7 mph - N/A   Mostly Cloudy
2:30 PM 80.6 °F 82.3 °F 64.4 °F 58% 29.92 in 6.2 mi South 12.7 mph - N/A   Mostly Cloudy
3:00 PM 79 °F - 65 °F 54% 29.94 in 19 mi South 15.0 mph - -   Partly Cloudy
3:00 PM 78.8 °F - 66.2 °F 65% 29.92 in 6.2 mi South 15.0 mph - N/A   Scattered Clouds
3:30 PM 78.8 °F - 66.2 °F 65% 29.92 in 6.2 mi South 13.8 mph - N/A   Scattered Clouds
4:00 PM 79 °F - 66 °F 56% 29.94 in - South 11.5 mph - -  
4:00 PM 78.8 °F - 66.2 °F 65% 29.92 in 6.2 mi South 11.5 mph - N/A   Scattered Clouds
4:30 PM 78.8 °F - 64.4 °F 61% 29.92 in 6.2 mi South 12.7 mph - N/A   Scattered Clouds
5:00 PM 77.0 °F - 66.2 °F 69% 29.95 in 6.2 mi SSE 12.7 mph - N/A   Scattered Clouds
5:30 PM 75.2 °F - 64.4 °F 69% 29.95 in 6.2 mi South 11.5 mph - N/A   Mostly Cloudy
6:00 PM 74 °F - 64 °F 63% 29.96 in - South 9.2 mph - -   Overcast
6:00 PM 75.2 °F - 64.4 °F 69% 29.95 in 6.2 mi South 9.2 mph - N/A   Mostly Cloudy
6:30 PM 73.4 °F - 64.4 °F 73% 29.95 in 6.2 mi South 11.5 mph - N/A   Mostly Cloudy
7:00 PM 74 °F - 64 °F 65% 29.97 in - South 11.5 mph - -  
7:00 PM 73.4 °F - 64.4 °F 73% 29.95 in 6.2 mi South 11.5 mph - N/A   Mostly Cloudy
7:30 PM 73.4 °F - 64.4 °F 73% 29.98 in 6.2 mi South 10.4 mph - N/A   Mostly Cloudy
8:00 PM 73.4 °F - 64.4 °F 73% 29.98 in 6.2 mi South 11.5 mph - N/A   Mostly Cloudy
8:30 PM 73.4 °F - 64.4 °F 73% 29.98 in 6.2 mi South 10.4 mph - N/A   Scattered Clouds
9:00 PM 73 °F - 64 °F 66% 29.99 in - South 12.7 mph - -  
9:00 PM 73.4 °F - 64.4 °F 73% 29.98 in 6.2 mi South 12.7 mph - N/A   Scattered Clouds
9:30 PM 73.4 °F - 64.4 °F 73% 29.98 in 6.2 mi South 13.8 mph - N/A   Mostly Cloudy
10:00 PM 72 °F - 65 °F 74% 30.01 in - SE 18.4 mph - -  
10:00 PM 71.6 °F - 66.2 °F 83% 30.01 in 6.2 mi SE 18.4 mph - N/A   Mostly Cloudy
10:30 PM 71.6 °F - 64.4 °F 78% 30.01 in 6.2 mi SE 11.5 mph - N/A   Mostly Cloudy
11:00 PM 71.6 °F - 64.4 °F 78% 30.01 in 6.2 mi SE 10.4 mph - N/A   Mostly Cloudy
11:30 PM 71.6 °F - 64.4 °F 78% 30.01 in 6.2 mi SE 9.2 mph - N/A   Light Drizzle